Date String (YYYY-MM-DD hh:mm:ss) UTC,Instrument flags,Ambient pressure (hPa),Sample flow (lpm),Bypass flow (lpm),Sample temperature (°C),Ambient temperature (°C),ASC tube jacket temperature (°C),LED temperature (°C),Box temperature (°C),Sample RH (%),Span deviation,Mass concentration (μg/m³),Mass concentration (μg/m³),Mass concentration (μg/m³)
DateTimeUTC,F1_M11,P_M11,Q1_M11,Q2_M11,T1_M11,T2_M11,T3_M11,T4_M11,T5_M11,U1_M11,ZSPAN_M11,X0_M11,X2_M11,X1_M11
2022-06-14 01:00:00,,0812.1,5.00,0.00,29.1,27.0,00.0,37.8,30.8,13.7,0004.7,0024.55,0018.98,0017.94
2022-06-14 01:01:00,,0812.1,4.99,0.00,29.1,27.0,00.0,37.8,30.8,13.5,0004.8,0025.01,0019.05,0018.00
2022-06-14 01:02:00,,0812.1,5.01,0.00,29.0,27.2,00.0,37.8,30.9,13.8,0005.1,0025.08,0019.12,0018.07
2022-06-14 01:03:00,,0812.1,5.00,0.00,29.0,27.4,00.0,37.8,30.9,14.1,0005.2,0025.76,0019.23,0018.18
2022-06-14 01:04:00,,0812.0,5.00,0.00,29.1,27.6,00.0,37.8,31.0,14.6,0005.3,0027.43,0019.39,0018.31
2022-06-14 01:05:00,,0812.0,4.99,0.00,29.1,27.8,00.0,37.9,31.1,14.8,0005.3,0028.33,0019.62,0018.41
2022-06-14 01:06:00,,0812.0,5.00,0.00,29.2,28.0,00.0,37.9,31.2,15.1,0005.2,0028.81,0019.80,0018.52
2022-06-14 01:07:00,,0812.0,4.99,0.00,29.2,28.1,00.0,37.9,31.2,15.7,0005.1,0030.10,0020.04,0018.57
2022-06-14 01:08:00,,0812.0,5.00,0.00,29.2,27.5,00.0,37.9,31.0,16.4,0005.1,0033.15,0020.39,0018.59
2022-06-14 01:09:00,,0811.9,5.01,0.00,29.1,27.0,00.0,37.8,30.8,16.8,0005.0,0036.87,0020.76,0018.60
2022-06-14 01:10:00,,0811.9,5.00,0.00,29.1,27.0,00.0,37.8,30.8,17.1,0004.9,0039.90,0021.14,0018.63
2022-06-14 01:11:00,,0811.9,4.99,0.00,29.0,27.1,00.0,37.8,30.8,17.2,0004.8,0042.85,0021.52,0018.67
2022-06-14 01:12:00,,0811.9,5.00,0.00,29.0,27.3,00.0,37.8,30.9,16.9,0004.8,0045.37,0022.00,0018.71
2022-06-14 01:13:00,,0812.0,5.01,0.00,29.1,27.5,00.0,37.8,31.0,16.7,0004.6,0047.37,0022.38,0018.72
2022-06-14 01:14:00,,0812.0,5.01,0.00,29.1,27.8,00.0,37.9,31.1,16.6,0004.5,0048.67,0022.81,0018.74
2022-06-14 01:15:00,,0812.0,5.00,0.00,29.1,28.0,00.0,37.9,31.2,16.6,0004.3,0048.19,0023.05,0018.73
2022-06-14 01:16:00,,0812.0,5.00,0.00,29.2,28.1,00.0,37.9,31.2,16.6,0004.2,0048.67,0023.25,0018.72
2022-06-14 01:17:00,,0812.0,4.99,0.00,29.2,27.5,00.0,37.9,31.0,16.8,0004.2,0050.47,0023.47,0018.71
2022-06-14 01:18:00,,0812.0,5.02,0.00,29.1,26.9,00.0,37.8,30.8,17.2,0004.5,0050.89,0023.56,0018.68
2022-06-14 01:19:00,,0812.0,4.99,0.00,29.0,26.9,00.0,37.8,30.8,17.3,0004.6,0049.54,0023.49,0018.61
2022-06-14 01:20:00,,0811.9,5.00,0.00,29.0,27.0,00.0,37.8,30.8,17.3,0004.6,0048.14,0023.36,0018.55
2022-06-14 01:21:00,,0811.9,5.00,0.00,29.0,27.2,00.0,37.8,30.9,17.3,0004.7,0047.04,0023.27,0018.48
2022-06-14 01:22:00,,0812.0,5.00,0.00,29.0,27.4,00.0,37.8,30.9,17.1,0004.5,0045.58,0023.28,0018.45
2022-06-14 01:23:00,,0812.0,4.99,0.00,29.0,27.7,00.0,37.8,31.0,17.2,0004.3,0043.78,0023.12,0018.44
2022-06-14 01:24:00,,0812.0,4.99,0.00,29.1,27.9,00.0,37.9,31.1,17.0,0004.3,0042.76,0022.92,0018.43
2022-06-14 01:25:00,,0812.0,5.00,0.00,29.2,28.1,00.0,37.9,31.2,16.5,0004.5,0041.37,0022.61,0018.41
2022-06-14 01:26:00,,0812.1,5.00,0.00,29.2,28.2,00.0,37.9,31.3,15.7,0004.5,0040.42,0022.32,0018.37
2022-06-14 01:27:00,,0812.0,5.01,0.00,29.2,27.7,00.0,37.9,31.1,15.0,0004.6,0038.90,0022.03,0018.38
2022-06-14 01:28:00,,0812.0,4.99,0.00,29.1,27.1,00.0,37.8,30.9,14.6,0004.4,0038.09,0021.80,0018.38
2022-06-14 01:29:00,,0812.0,5.00,0.00,29.1,27.0,00.0,37.8,30.8,14.2,0004.2,0037.36,0021.59,0018.40
2022-06-14 01:30:00,,0811.9,4.99,0.00,29.0,27.1,00.0,37.8,30.8,14.2,0004.0,0036.66,0021.30,0018.44
2022-06-14 01:31:00,,0811.9,5.01,0.00,29.0,27.3,00.0,37.8,30.9,14.3,0003.9,0034.25,0020.99,0018.47
2022-06-14 01:32:00,,0812.0,5.00,0.00,29.0,27.5,00.0,37.8,30.9,13.8,0004.0,0031.76,0020.78,0018.57
2022-06-14 01:33:00,,0812.0,5.01,0.00,29.1,27.7,00.0,37.8,31.0,13.1,0004.2,0030.53,0020.52,0018.70
2022-06-14 01:34:00,,0812.0,5.01,0.00,29.1,27.9,00.0,37.9,31.1,12.9,0004.6,0030.97,0020.43,0018.85
2022-06-14 01:35:00,,0812.0,5.00,0.00,29.2,28.1,00.0,37.9,31.2,13.0,0004.6,0032.05,0020.48,0019.02
2022-06-14 01:36:00,,0812.1,4.99,0.00,29.2,28.2,00.0,37.9,31.3,13.0,0004.2,0032.21,0020.57,0019.19
2022-06-14 01:37:00,,0812.1,5.00,0.00,29.2,27.8,00.0,37.9,31.1,13.4,0003.8,0031.84,0020.71,0019.35
2022-06-14 01:38:00,,0812.1,5.01,0.00,29.1,27.0,00.0,37.8,30.9,13.9,0003.9,0032.43,0020.82,0019.50
2022-06-14 01:39:00,,0812.1,4.99,0.00,29.1,26.9,00.0,37.8,30.8,14.1,0004.1,0032.22,0020.95,0019.65
2022-06-14 01:40:00,,0812.0,5.01,0.00,29.0,27.0,00.0,37.8,30.8,13.9,0004.5,0032.38,0021.12,0019.78
2022-06-14 01:41:00,,0812.0,5.00,0.00,29.0,27.2,00.0,37.8,30.9,13.8,0004.6,0031.45,0021.26,0019.91
2022-06-14 01:42:00,,0812.1,5.00,0.00,29.0,27.4,00.0,37.8,30.9,13.8,0004.4,0031.36,0021.38,0020.04
2022-06-14 01:43:00,,0812.1,4.99,0.00,29.1,27.6,00.0,37.8,31.0,13.7,0004.0,0031.34,0021.42,0020.12
2022-06-14 01:44:00,,0812.2,4.99,0.00,29.1,27.8,00.0,37.9,31.1,13.6,0004.1,0031.03,0021.42,0020.15
2022-06-14 01:45:00,,0812.1,5.01,0.00,29.1,28.0,00.0,37.9,31.2,13.6,0003.8,0030.16,0021.35,0020.14
2022-06-14 01:46:00,,0812.1,5.01,0.00,29.2,28.2,00.0,37.9,31.2,13.7,0003.8,0028.93,0021.32,0020.13
2022-06-14 01:47:00,,0812.1,5.00,0.00,29.2,28.2,00.0,37.9,31.3,13.6,0004.1,0028.59,0021.32,0020.13
2022-06-14 01:48:00,,0812.1,4.99,0.00,29.2,27.5,00.0,37.9,31.0,13.0,0004.3,0028.90,0021.32,0020.09
2022-06-14 01:49:00,,0812.1,5.00,0.00,29.1,26.9,00.0,37.8,30.9,12.4,0004.1,0029.11,0021.31,0020.04
2022-06-14 01:50:00,,0812.1,4.99,0.00,29.1,26.9,00.0,37.8,30.8,11.6,0004.1,0029.36,0021.26,0019.97
2022-06-14 01:51:00,,0812.1,5.01,0.00,29.0,27.0,00.0,37.8,30.8,11.0,0003.8,0028.92,0021.15,0019.89
2022-06-14 01:52:00,,0812.1,5.00,0.00,29.0,27.2,00.0,37.8,30.9,11.0,0003.6,0029.05,0021.07,0019.81
2022-06-14 01:53:00,,0812.1,4.99,0.00,29.0,27.4,00.0,37.8,31.0,11.0,0003.7,0029.38,0021.10,0019.75
2022-06-14 01:54:00,,0812.1,5.01,0.00,29.1,27.7,00.0,37.8,31.0,10.7,0004.0,0029.68,0021.03,0019.66
2022-06-14 01:55:00,,0812.1,5.01,0.00,29.1,27.9,00.0,37.9,31.1,10.5,0004.1,0029.81,0020.98,0019.59
2022-06-14 01:56:00,,0812.2,5.00,0.00,29.2,28.1,00.0,37.9,31.2,10.4,0004.1,0029.51,0020.94,0019.52
2022-06-14 01:57:00,,0812.2,5.00,0.00,29.2,28.3,00.0,37.9,31.3,10.3,0004.0,0029.08,0020.87,0019.45
2022-06-14 01:58:00,,0812.2,5.01,0.00,29.3,28.0,00.0,37.9,31.2,10.5,0004.1,0029.11,0020.80,0019.38
2022-06-14 01:59:00,,0812.1,5.00,0.00,29.2,27.2,00.0,37.9,30.9,10.7,0004.1,0028.88,0020.78,0019.35
